Wetbulb
56.01 54.05 56.50 54.75 44.20 41.81 38.15 43.26 45.83 50.37 53.84 62.17 63.60 62.05 60.84 61.66 58.09 54.46 69.50 70.30 70.55 69.61 70.68 71.49 71.78 72.53 72.85 73.22 73.20 73.25 73.41 73.42 73.60 73.41 73.12 73.30 73.36 73.34 73.51 73.40 73.49 73.70 73.60 73.25 73.17 73.17 72.77 73.30 72.67
54.74 55.14 53.70 49.91 40.73 36.04 40.22 46.92 49.39 54.33 57.66 63.65 64.28 63.73 62.24 60.88 66.23 66.82 67.58 69.92 69.80 69.40 69.74 70.32 70.79 71.27 71.71 71.81 71.92 72.26 72.54 72.60 72.54 73.04 73.06 72.93 72.82 72.91 73.28 73.04 72.90 72.93 72.87 72.78 72.77 73.02 73.03 72.85 71.98
55.74 56.11 48.20 45.12 40.93 39.25 39.47 49.26 51.51 54.11 55.17 55.28 55.21 59.75 61.02 61.79 65.48 66.87 68.82 68.87 68.30 67.44 68.10 67.90 68.35 68.42 68.85 68.98 69.10 69.30 69.49 69.49 69.87 70.12 70.71 71.29 72.34 72.74 72.97 72.44 72.21 72.67 72.39 72.71 72.61 72.73 73.13 71.91 71.39
52.00 50.03 48.93 42.21 40.76 45.28 45.63 49.56 52.71 53.22 53.48 56.29 57.86 56.29 61.24 65.37 65.75 68.24 69.25 68.09 66.52 65.26 64.75 65.61 66.65 67.09 67.22 67.03 66.47 66.20 66.07 65.98 65.79 65.80 66.68 68.31 69.48 70.39 71.66 71.93 72.09 72.37 71.96 71.88 72.50 72.50 72.02 70.86 70.47
48.95 46.99 40.52 40.52 43.71 48.02 49.23 50.95 52.11 51.31 51.86 55.12 57.57 56.45 58.40 65.80 67.80 69.36 68.19 66.41 63.88 62.40 61.42 62.66 64.66 64.96 64.94 64.50 63.72 63.24 63.08 62.67 62.58 62.63 62.60 64.15 65.58 67.79 69.47 70.49 70.94 71.29 71.96 71.78 71.80 71.80 71.12 70.27 69.94
44.94 45.87 38.68 38.82 43.92 48.54 50.20 51.13 52.73 52.22 51.91 57.98 57.66 57.72 58.97 66.31 65.51 66.31 66.14 64.60 62.84 59.72 59.64 60.37 62.52 61.80 61.17 60.96 60.61 60.52 60.99 61.48 62.53 62.56 63.86 63.37 64.46 65.40 67.29 68.70 69.77 70.35 70.84 70.94 70.91 70.45 70.28 69.94 69.54
43.38 40.61 38.32 40.37 43.65 46.10 49.12 52.18 51.24 51.79 50.27 52.31 58.79 54.96 59.17 61.82 63.23 63.82 62.75 61.93 61.18 61.16 60.20 59.70 59.74 61.28 61.42 61.18 60.68 60.46 60.79 61.36 61.97 63.17 63.40 63.60 64.48 65.06 66.07 67.43 69.15 68.92 68.90 69.26 69.77 69.74 69.38 69.29 69.04
45.00 42.74 39.50 40.59 42.53 43.12 49.85 50.40 51.25 50.53 48.68 54.05 60.28 55.04 55.83 60.25 62.63 62.34 61.17 59.25 58.32 58.04 57.21 56.70 56.76 57.50 57.60 55.24 60.19 60.01 60.08 60.26 62.76 62.55 62.31 62.11 61.60 62.73 63.11 62.65 65.30 64.85 66.49 67.67 68.32 68.25 68.53 68.63 68.27
45.09 39.58 37.15 41.76 42.53 46.74 50.01 48.39 51.82 51.45 49.61 56.87 59.86 59.91 61.54 61.98 62.32 59.65 57.65 56.56 55.97 56.09 55.05 54.67 54.67 54.89 55.36 55.77 58.99 60.76 61.95 62.11 61.22 59.83 60.82 58.29 56.89 57.29 58.23 61.85 63.95 64.27 64.88 65.57 66.57 67.38 67.26 66.95 67.31
42.56 38.41 41.09 46.11 46.47 46.24 49.30 46.26 48.92 47.31 47.50 56.05 57.42 59.80 60.99 61.16 60.18 57.74 56.07 54.71 53.55 53.05 53.02 53.53 53.75 53.40 53.72 56.17 54.94 54.59 55.77 55.48 56.12 56.03 55.05 55.72 55.32 57.44 58.62 59.07 61.56 61.97 62.99 62.53 63.01 63.36 65.16 67.09 67.13
44.35 40.40 45.39 46.64 47.99 46.04 47.02 46.87 47.54 46.02 43.80 53.48 55.05 57.51 58.97 59.38 59.24 57.84 56.98 55.71 52.69 52.28 52.99 53.16 53.46 52.99 52.68 53.30 52.99 53.04 52.95 53.81 53.92 54.71 54.23 54.39 54.89 54.85 55.52 55.08 55.61 55.34 59.54 56.53 57.54 57.10 57.06 57.16 58.94
44.80 48.98 48.20 47.57 48.90 45.91 43.52 46.28 46.78 45.05 46.90 55.49 58.59 58.96 59.10 58.80 58.91 58.20 56.92 52.89 51.67 51.34 51.39 52.21 52.49 52.54 52.09 52.27 52.65 52.22 52.59 52.61 52.97 53.94 54.13 53.09 52.86 52.89 53.30 53.83 54.48 54.26 55.06 54.17 54.31 54.94 55.53 55.77 56.33
45.71 47.97 49.23 48.78 47.92 46.69 48.05 45.03 46.15 45.74 50.92 59.99 59.86 59.43 59.16 58.83 58.14 57.19 54.02 53.31 52.03 51.02 51.42 51.52 52.00 51.15 51.67 51.60 51.64 52.08 50.98 51.81 52.71 53.07 53.98 52.93 52.24 52.08 52.16 52.85 53.86 53.69 54.19 53.65 54.04 54.12 54.67 54.78 55.74
48.63 47.92 47.49 46.97 46.94 47.06 47.06 46.25 44.07 47.09 53.87 57.37 58.27 57.31 57.60 57.43 56.85 51.93 52.48 51.90 51.73 51.89 51.14 51.13 51.24 50.92 51.19 50.46 50.31 51.07 50.34 51.37 51.75 52.51 52.80 52.74 51.99 51.14 51.24 51.78 52.63 52.89 53.09 53.63 53.46 52.93 52.88 52.80 53.53
49.32 44.95 45.83 46.45 46.34 46.45 47.19 43.80 43.04 47.08 52.69 54.74 55.33 56.10 55.44 55.52 52.22 51.14 51.53 50.87 51.45 51.18 51.17 50.36 50.67 50.78 50.13 49.73 49.80 50.17 50.16 51.27 50.66 51.47 51.43 51.32 51.89 50.60 50.37 50.45 51.36 51.83 52.27 52.60 52.86 52.10 52.15 51.83 52.65
45.27 44.23 39.44 47.12 47.77 48.91 45.71 41.08 46.11 47.70 46.91 49.77 52.69 53.33 53.67 51.92 51.80 51.15 50.83 50.28 50.41 50.00 48.99 49.53 53.01 49.95 49.30 48.71 49.11 49.89 49.78 49.88 49.73 50.44 50.32 51.00 51.36 50.97 49.54 49.56 50.43 50.39 50.42 51.03 50.11 50.05 49.74 48.94 49.57
42.05 35.86 39.15 43.55 49.46 47.12 44.79 40.54 45.08 47.09 47.48 46.45 50.36 50.08 49.53 48.62 49.95 50.08 49.38 48.98 48.41 48.79 48.69 48.56 48.68 48.20 48.54 48.72 48.71 48.84 49.64 48.73 49.02 48.97 49.14 50.37 50.17 50.75 48.93 48.66 49.02 49.47 49.14 48.61 48.48 48.76 47.51 46.88 47.39
37.33 38.04 41.65 40.65 44.82 44.35 40.51 39.83 43.15 44.86 44.82 44.28 45.97 46.48 46.85 48.73 48.66 49.30 47.82 48.05 46.71 46.58 47.39 47.89 47.97 47.57 48.12 47.93 47.56 48.21 47.50 48.01 48.08 47.94 48.95 49.08 48.96 49.53 48.19 47.73 47.53 47.67 46.45 45.81 46.63 45.41 46.24 46.77 46.90
43.35 42.06 40.92 41.82 45.13 41.75 39.90 40.02 42.32 44.08 42.28 43.20 45.85 46.22 46.89 48.61 48.60 48.35 47.48 47.01 46.97 46.78 47.43 47.41 47.00 46.73 45.25 44.86 44.58 44.44 44.35 46.00 46.83 47.55 49.00 48.49 48.61 48.35 46.99 47.29 46.56 46.39 44.55 44.00 44.64 45.35 45.15 45.23 45.94
42.90 40.58 40.22 42.53 45.31 44.04 41.54 40.20 41.92 43.86 44.03 43.71 44.55 46.13 46.62 46.23 48.12 47.39 46.52 46.50 46.18 45.80 45.89 45.89 45.75 45.39 45.03 43.59 44.01 44.27 44.00 45.50 46.72 46.94 47.21 47.87 47.69 47.45 47.49 46.29 45.90 45.17 43.52 43.28 43.34 43.85 43.41 43.40 44.94
42.51 39.03 39.74 40.34 42.68 43.63 40.43 39.18 41.43 44.88 45.47 45.85 46.98 47.08 48.46 47.86 46.24 45.46 45.52 44.63 44.48 44.09 44.68 45.48 44.96 44.49 44.98 45.14 45.09 44.82 44.66 44.60 43.98 44.91 45.15 46.33 47.36 47.52 46.52 45.97 44.98 44.42 43.82 42.50 43.35 43.15 42.71 41.36 43.29
39.23 43.45 43.00 41.84 38.85 34.06 41.13 32.94 39.53 42.58 43.95 45.64 46.89 46.55 46.61 48.07 47.13 45.60 45.13 43.99 43.80 42.86 43.61 43.83 44.62 44.33 45.80 45.21 44.01 43.18 42.09 41.42 42.95 44.16 44.93 45.71 46.25 46.63 46.59 45.25 44.22 43.29 42.94 41.63 42.60 42.95 42.53 42.20 40.60
40.22 44.24 42.53 41.21 36.58 34.93 36.39 32.05 35.36 42.17 41.48 43.43 44.90 46.79 47.17 47.61 46.12 44.60 44.72 44.87 44.08 43.40 42.61 42.97 43.86 44.66 44.97 44.80 44.21 42.80 41.97 42.19 43.12 43.95 44.01 43.79 44.75 45.39 44.81 44.35 43.09 41.88 41.15 40.57 41.81 41.55 41.35 42.18 41.54
43.54 40.89 39.82 38.92 35.52 28.23 35.40 33.93 34.97 37.84 41.28 44.16 45.93 45.40 46.34 45.13 44.81 45.17 45.42 44.22 43.14 43.47 42.86 42.78 42.15 43.06 43.54 43.03 42.77 41.81 40.79 41.27 40.90 41.09 41.09 41.95 43.24 43.45 43.13 43.54 42.00 41.13 40.17 41.05 40.95 41.02 41.06 41.13 41.48
40.06 35.53 28.27 25.96 26.34 27.21 37.74 34.73 36.71 41.23 43.53 44.58 44.12 44.80 45.15 45.11 44.61 43.98 42.04 42.51 42.65 42.07 42.29 42.29 41.31 41.86 42.55 42.04 41.84 40.94 40.49 40.31 39.76 39.42 39.37 39.56 40.26 40.51 40.73 40.83 40.08 39.51 39.34 39.93 39.59 39.67 39.99 40.30 40.30
37.95 35.70 27.69 23.55 24.68 27.68 36.84 30.79 35.97 43.17 44.63 45.72 46.27 46.12 45.73 44.66 44.58 42.55 41.83 41.99 42.47 42.55 41.47 40.84 41.05 41.29 41.86 41.78 41.45 41.53 41.62 40.93 40.26 39.70 39.25 38.89 39.55 39.81 40.08 39.25 38.87 38.57 39.65 38.83 38.32 37.83 38.82 38.83 39.41
37.12 33.81 38.49 31.45 33.15 25.71 30.25 35.31 40.46 43.20 43.33 43.86 45.50 45.74 43.64 43.12 42.26 42.04 42.07 42.09 41.99 41.56 41.81 41.41 41.17 41.85 42.08 41.83 41.40 41.44 41.34 40.91 39.91 39.80 39.70 39.11 38.64 39.83 39.71 38.60 37.70 38.59 38.12 37.41 36.96 36.30 36.30 36.95 37.51
40.17 40.68 31.68 33.09 25.11 22.80 29.30 31.14 31.86 37.49 40.11 41.67 43.55 43.93 44.10 43.71 43.15 42.94 41.65 42.00 42.33 41.95 41.50 40.78 40.61 40.59 40.87 40.65 40.49 40.48 39.78 39.95 39.77 39.09 37.68 37.51 37.22 37.64 38.22 38.06 37.73 37.96 37.07 36.94 36.25 35.65 36.34 35.00 35.00
37.75 35.49 37.10 36.74 34.48 27.38 25.09 27.99 41.20 41.47 42.40 42.34 44.06 44.93 44.57 44.15 43.57 42.55 42.06 42.26 41.66 41.36 40.35 39.62 39.77 39.66 39.16 39.80 39.94 39.06 38.40 38.54 38.26 37.13 36.28 36.53 36.79 37.69 37.46 37.22 36.92 36.49 35.40 36.11 34.90 35.16 34.23 32.21 30.63
40.34 36.92 35.80 29.93 30.28 32.45 29.43 28.61 42.80 40.46 42.03 43.65 43.55 45.74 45.28 44.85 43.02 42.47 41.56 40.48 39.89 39.27 38.57 38.54 38.57 38.84 38.69 39.34 39.09 38.22 38.04 37.73 36.47 35.53 35.51 36.04 36.98 37.22 36.59 36.28 35.97 35.09 35.07 35.10 33.92 32.17 31.19 29.31 28.94
MSLP
1009.98 1009.51 1010.13 1010.39 1011.24 1010.55 1009.27 1006.83 1005.81 1004.58 1003.57 1004.46 1004.75 1005.89 1008.55 1009.43 1010.51 1012.55 1012.74 1012.94 1013.56 1014.18 1014.17 1013.92 1013.85 1013.71 1013.72 1013.74 1013.71 1013.72 1013.80 1013.90 1013.84 1013.90 1014.14 1014.25 1014.35 1014.42 1014.36 1014.41 1014.41 1014.52 1014.43 1014.47 1014.41 1014.39 1014.49 1014.56 1014.55
1009.97 1009.65 1009.58 1009.96 1010.64 1010.23 1008.21 1006.18 1004.95 1004.23 1003.87 1004.33 1004.91 1006.40 1007.93 1010.66 1011.22 1012.18 1012.74 1013.50 1013.88 1013.85 1014.26 1014.28 1014.00 1014.05 1014.09 1013.94 1013.91 1013.92 1014.02 1014.14 1014.08 1014.06 1014.16 1014.20 1014.36 1014.51 1014.53 1014.51 1014.48 1014.53 1014.52 1014.49 1014.43 1014.41 1014.45 1014.49 1014.58
1009.86 1010.00 1010.40 1010.16 1009.73 1008.84 1007.65 1006.27 1004.70 1003.81 1003.62 1004.01 1005.56 1006.98 1008.97 1011.15 1011.94 1012.41 1013.03 1013.37 1013.89 1014.55 1014.42 1014.37 1014.43 1014.36 1014.33 1014.29 1014.38 1014.49 1014.56 1014.50 1014.40 1014.41 1014.45 1014.43 1014.47 1014.47 1014.48 1014.59 1014.60 1014.57 1014.49 1014.49 1014.45 1014.41 1014.51 1014.56 1014.55
1009.86 1010.34 1010.24 1009.70 1008.97 1006.86 1006.19 1005.41 1004.07 1003.74 1003.81 1004.29 1005.91 1008.65 1010.62 1011.72 1011.83 1012.32 1012.94 1013.53 1014.16 1014.66 1014.65 1014.91 1014.66 1014.48 1014.56 1014.64 1014.77 1014.91 1015.01 1014.97 1014.83 1014.79 1014.74 1014.74 1014.76 1014.68 1014.65 1014.60 1014.57 1014.56 1014.52 1014.49 1014.47 1014.46 1014.50 1014.45 1014.38
1009.72 1010.20 1010.45 1009.76 1008.01 1006.25 1005.28 1004.32 1003.30 1003.54 1004.00 1005.00 1005.87 1009.41 1011.31 1012.08 1012.00 1012.54 1013.00 1013.74 1014.30 1014.77 1014.86 1014.79 1014.74 1014.81 1014.98 1015.11 1015.25 1015.32 1015.29 1015.26 1015.09 1015.01 1015.00 1014.91 1014.79 1014.67 1014.62 1014.58 1014.62 1014.60 1014.55 1014.48 1014.41 1014.37 1014.37 1014.30 1014.35
1009.87 1010.11 1010.65 1010.01 1008.04 1006.20 1004.60 1003.20 1002.99 1003.19 1003.92 1005.38 1006.82 1009.00 1011.69 1012.15 1012.36 1012.90 1013.27 1013.79 1014.14 1014.61 1014.74 1014.77 1014.96 1015.15 1015.31 1015.42 1015.58 1015.62 1015.59 1015.52 1015.35 1015.33 1015.14 1015.02 1014.82 1014.76 1014.60 1014.52 1014.56 1014.52 1014.50 1014.41 1014.33 1014.29 1014.18 1014.16 1014.16
1009.81 1010.48 1010.50 1009.53 1007.92 1006.09 1003.95 1002.94 1002.96 1003.45 1003.95 1004.89 1006.19 1009.15 1011.63 1012.24 1012.49 1012.90 1013.40 1013.91 1014.26 1014.37 1014.66 1014.90 1015.12 1015.27 1015.42 1015.44 1015.62 1015.70 1015.70 1015.62 1015.54 1015.51 1015.32 1015.11 1014.88 1014.78 1014.71 1014.44 1014.45 1014.44 1014.38 1014.29 1014.18 1014.12 1014.00 1013.94 1013.94
1009.24 1010.02 1010.10 1009.03 1007.71 1006.53 1004.67 1003.69 1003.15 1003.91 1004.67 1005.27 1006.47 1008.93 1011.32 1011.85 1012.43 1013.05 1013.73 1014.12 1014.30 1014.57 1014.80 1015.05 1015.22 1015.24 1015.54 1015.48 1015.42 1015.57 1015.69 1015.71 1015.67 1015.70 1015.68 1015.42 1015.19 1015.04 1014.79 1014.68 1014.61 1014.35 1014.25 1014.17 1014.06 1013.90 1013.76 1013.61 1013.67
1008.50 1009.70 1010.02 1008.60 1007.64 1006.28 1005.24 1004.87 1004.28 1004.51 1005.59 1006.64 1007.43 1008.01 1008.71 1011.11 1012.19 1013.07 1013.82 1014.39 1014.64 1014.78 1014.98 1015.20 1015.30 1015.37 1015.57 1015.55 1015.44 1015.64 1015.74 1015.89 1015.93 1015.99 1016.01 1015.89 1015.67 1015.48 1015.18 1014.98 1014.75 1014.50 1014.24 1014.04 1013.92 1013.67 1013.52 1013.47 1013.44
1008.73 1009.29 1008.81 1007.84 1007.25 1006.48 1005.68 1005.64 1005.29 1005.33 1006.22 1008.20 1009.07 1009.83 1010.22 1011.08 1012.02 1012.82 1013.69 1014.32 1014.75 1015.05 1015.31 1015.50 1015.52 1015.66 1015.63 1015.62 1015.87 1016.03 1016.00 1016.16 1016.31 1016.32 1016.32 1016.33 1016.06 1015.83 1015.61 1015.42 1015.08 1014.67 1014.39 1014.17 1014.02 1013.77 1013.59 1013.54 1013.44
1008.37 1008.50 1007.92 1007.08 1006.67 1006.11 1006.13 1005.92 1005.64 1005.74 1006.46 1006.91 1008.47 1009.79 1010.68 1011.38 1012.08 1012.71 1013.48 1014.06 1014.54 1014.88 1015.30 1015.71 1015.89 1015.86 1015.89 1015.98 1016.23 1016.43 1016.43 1016.45 1016.49 1016.62 1016.52 1016.68 1016.57 1016.25 1016.03 1015.88 1015.57 1015.23 1014.81 1014.75 1014.53 1014.35 1014.17 1014.07 1013.84
1008.54 1007.84 1007.41 1006.53 1006.16 1006.18 1005.91 1006.24 1006.23 1006.13 1005.80 1005.86 1007.61 1009.19 1010.31 1010.84 1011.36 1011.89 1012.82 1013.77 1014.41 1014.89 1015.48 1015.94 1016.12 1016.14 1016.20 1016.18 1016.37 1016.48 1016.73 1016.66 1016.92 1016.94 1016.69 1016.86 1017.08 1016.91 1016.62 1016.39 1016.05 1015.77 1015.65 1015.32 1015.06 1014.85 1014.51 1014.21 1013.90
1008.46 1007.99 1007.42 1006.87 1006.36 1006.34 1005.86 1005.98 1006.34 1006.12 1006.28 1006.53 1007.56 1008.73 1009.59 1010.38 1010.88 1011.47 1012.10 1013.20 1014.14 1014.89 1015.69 1016.14 1016.49 1016.48 1016.34 1016.43 1016.59 1016.76 1016.89 1016.92 1017.07 1017.25 1017.06 1016.94 1017.08 1017.20 1017.00 1016.76 1016.37 1016.22 1015.93 1015.75 1015.40 1015.16 1014.83 1014.51 1014.21
1008.56 1008.10 1007.54 1007.08 1006.72 1006.39 1006.46 1006.26 1006.18 1006.03 1006.58 1007.19 1007.73 1008.50 1009.22 1010.05 1010.52 1011.50 1012.24 1013.04 1013.94 1014.76 1015.49 1016.13 1016.52 1016.52 1016.31 1016.67 1016.64 1016.86 1016.86 1016.97 1017.01 1017.46 1017.37 1017.25 1017.30 1017.33 1017.32 1017.17 1016.93 1016.72 1016.43 1016.06 1015.83 1015.62 1015.33 1015.06 1014.63
1008.95 1008.50 1007.97 1007.22 1006.76 1006.52 1006.09 1006.41 1006.41 1005.98 1006.62 1007.21 1007.86 1008.55 1008.98 1009.82 1010.58 1011.18 1012.01 1012.90 1013.64 1014.66 1015.28 1016.05 1016.57 1016.50 1016.62 1016.84 1016.67 1016.80 1016.88 1016.98 1017.14 1017.68 1017.47 1017.47 1017.65 1017.45 1017.57 1017.45 1017.46 1017.08 1016.78 1016.53 1016.35 1016.10 1015.79 1015.57 1015.18
1009.71 1009.01 1008.28 1006.75 1006.49 1005.74 1006.08 1005.99 1005.81 1005.71 1006.07 1006.94 1007.65 1008.22 1008.73 1009.24 1010.19 1011.38 1012.08 1012.86 1013.68 1014.53 1015.24 1016.04 1016.64 1016.57 1016.67 1016.96 1016.85 1016.81 1016.95 1017.20 1017.38 1017.81 1017.70 1017.60 1017.68 1017.75 1017.61 1017.60 1017.64 1017.38 1017.16 1017.11 1017.00 1016.67 1016.27 1016.02 1015.65
1009.73 1009.24 1008.25 1006.92 1005.56 1005.17 1004.90 1005.13 1005.13 1005.06 1005.80 1006.81 1007.26 1007.94 1008.64 1009.38 1010.05 1010.93 1011.98 1012.94 1013.90 1014.78 1015.56 1016.40 1016.95 1016.89 1016.74 1016.66 1016.76 1016.94 1017.07 1017.18 1017.51 1017.90 1017.94 1017.94 1017.95 1017.96 1017.95 1017.98 1017.82 1017.72 1017.66 1017.68 1017.55 1017.22 1016.97 1016.57 1016.07
1009.29 1008.83 1007.67 1006.75 1005.43 1004.70 1004.61 1004.85 1004.93 1004.95 1005.20 1005.91 1007.05 1007.58 1008.45 1009.34 1010.12 1010.84 1012.02 1013.51 1014.59 1015.34 1015.98 1016.69 1017.13 1017.01 1016.81 1016.70 1016.77 1017.19 1017.40 1017.45 1017.51 1017.80 1017.97 1018.18 1018.23 1018.20 1018.30 1018.23 1018.19 1018.12 1018.19 1018.00 1017.95 1017.66 1017.29 1016.92 1016.43
1008.77 1008.15 1007.20 1006.18 1005.23 1005.14 1005.38 1005.19 1004.87 1004.72 1005.18 1005.74 1006.24 1006.84 1007.58 1008.54 1009.78 1010.80 1011.94 1012.99 1014.17 1015.29 1016.09 1016.88 1017.34 1017.30 1017.14 1017.03 1017.18 1017.56 1017.81 1017.76 1018.01 1017.85 1017.93 1017.97 1018.34 1018.41 1018.59 1018.48 1018.45 1018.50 1018.53 1018.49 1018.39 1018.14 1017.80 1017.23 1016.98
1007.84 1007.37 1006.80 1005.78 1005.36 1005.28 1005.29 1004.98 1004.75 1004.61 1004.55 1005.06 1005.57 1006.29 1006.93 1008.29 1009.55 1010.71 1011.76 1012.79 1013.61 1014.71 1015.97 1016.84 1017.50 1017.64 1017.59 1017.46 1017.46 1017.55 1017.58 1017.83 1018.03 1018.14 1018.31 1018.15 1018.18 1018.51 1018.50 1018.71 1018.86 1018.73 1018.80 1018.83 1018.82 1018.67 1018.29 1017.98 1017.65
1006.80 1006.75 1006.49 1005.88 1005.94 1005.67 1005.81 1004.94 1004.80 1004.32 1004.04 1004.12 1004.37 1004.83 1005.91 1007.34 1008.82 1010.32 1011.63 1012.81 1013.71 1014.60 1015.36 1016.57 1017.35 1017.79 1017.87 1017.91 1017.70 1017.72 1017.86 1018.28 1018.46 1018.62 1018.52 1018.52 1018.55 1018.63 1018.81 1018.91 1019.03 1019.08 1019.07 1019.14 1019.14 1018.96 1018.84 1018.54 1018.18
1005.84 1006.17 1006.14 1006.14 1006.43 1006.43 1006.19 1004.79 1004.64 1004.19 1003.95 1003.63 1003.53 1004.10 1005.00 1006.44 1008.24 1009.76 1011.27 1012.73 1013.75 1014.75 1015.46 1016.03 1017.01 1017.92 1018.19 1018.30 1018.30 1018.47 1018.64 1019.00 1019.03 1019.05 1018.90 1019.10 1018.88 1019.12 1019.32 1019.39 1019.45 1019.56 1019.52 1019.45 1019.44 1019.36 1019.24 1019.02 1018.65
1005.89 1005.58 1005.97 1006.54 1006.98 1007.12 1006.13 1006.23 1004.32 1003.96 1003.47 1002.93 1002.61 1002.89 1003.74 1005.48 1007.40 1009.47 1011.11 1012.56 1013.93 1014.78 1015.71 1016.24 1016.76 1017.62 1018.31 1018.54 1018.77 1018.95 1019.22 1019.41 1019.21 1019.12 1019.39 1019.54 1019.48 1019.62 1019.79 1019.71 1019.78 1019.85 1019.92 1019.87 1019.82 1019.70 1019.51 1019.30 1019.01
1006.17 1006.13 1006.42 1007.01 1007.48 1007.65 1006.38 1006.61 1003.47 1003.98 1003.12 1002.33 1001.90 1002.26 1003.76 1005.76 1007.97 1009.52 1011.14 1012.49 1013.93 1014.83 1015.74 1016.52 1017.26 1017.93 1018.34 1018.80 1019.03 1019.31 1019.70 1019.81 1019.83 1019.99 1020.08 1020.11 1020.16 1020.26 1020.21 1020.20 1020.26 1020.27 1020.16 1020.15 1020.03 1019.87 1019.61 1019.35 1019.03
1006.70 1007.13 1007.94 1008.10 1008.26 1007.51 1007.06 1006.66 1003.98 1003.47 1002.75 1002.03 1002.04 1003.29 1004.56 1006.18 1007.99 1009.71 1011.53 1012.88 1014.09 1015.02 1015.94 1016.58 1017.35 1018.18 1018.55 1018.98 1019.39 1019.66 1019.74 1019.92 1020.28 1020.41 1020.65 1020.77 1020.74 1020.81 1020.92 1020.83 1020.84 1020.74 1020.53 1020.40 1020.21 1020.00 1019.72 1019.43 1019.13
1006.64 1007.41 1008.27 1008.71 1008.92 1008.29 1007.41 1005.84 1004.52 1003.97 1002.94 1002.53 1003.24 1004.17 1005.88 1007.76 1009.23 1010.54 1012.01 1013.23 1014.33 1015.41 1016.17 1016.93 1017.46 1018.15 1018.78 1019.26 1019.65 1019.86 1019.95 1020.28 1020.39 1020.50 1020.76 1020.96 1021.04 1021.09 1021.02 1021.01 1020.94 1020.81 1020.63 1020.69 1020.55 1020.31 1020.05 1019.70 1019.35
1006.47 1007.35 1008.03 1009.28 1009.47 1009.46 1008.10 1006.52 1005.12 1003.99 1004.00 1004.02 1004.88 1006.45 1007.29 1008.99 1010.32 1011.14 1012.65 1013.86 1014.86 1015.55 1016.21 1017.04 1017.80 1018.18 1018.77 1019.37 1019.82 1020.12 1020.38 1020.66 1020.82 1020.88 1021.08 1021.39 1021.46 1021.22 1021.05 1020.97 1020.86 1020.80 1020.88 1020.83 1020.65 1020.52 1020.22 1019.95 1019.58
1006.56 1007.32 1008.62 1010.43 1011.22 1010.43 1008.61 1007.30 1006.15 1005.57 1005.56 1005.62 1006.53 1007.01 1008.63 1010.04 1010.93 1011.90 1013.27 1014.40 1015.21 1015.85 1016.31 1017.10 1017.96 1018.57 1019.04 1019.46 1019.91 1020.44 1020.67 1020.89 1021.15 1021.36 1021.62 1021.69 1021.68 1021.50 1021.34 1021.22 1021.08 1020.84 1020.89 1020.91 1020.81 1020.63 1020.34 1020.24 1020.01
1007.85 1008.06 1009.59 1011.20 1012.12 1011.13 1009.99 1008.20 1006.60 1006.99 1006.63 1006.88 1007.97 1008.71 1009.38 1010.52 1011.33 1012.50 1013.68 1014.85 1015.71 1016.39 1016.83 1017.50 1018.30 1019.01 1019.43 1019.68 1020.08 1020.91 1021.10 1021.24 1021.41 1021.62 1021.90 1021.96 1021.88 1021.67 1021.63 1021.43 1021.33 1021.23 1021.27 1021.02 1020.99 1020.95 1020.77 1020.64 1020.34
1009.62 1010.33 1011.65 1012.19 1011.65 1011.11 1010.56 1009.23 1007.77 1007.69 1007.90 1007.79 1008.76 1009.32 1009.87 1010.64 1011.74 1012.73 1013.99 1015.22 1016.09 1016.92 1017.60 1018.10 1018.97 1019.41 1019.88 1020.06 1020.59 1021.01 1021.26 1021.46 1021.86 1022.05 1022.08 1021.97 1021.94 1021.82 1021.80 1021.79 1021.75 1021.60 1021.52 1021.27 1021.44 1021.37 1021.21 1020.94 1020.37
Wind_Speed
7 8 2 2 4 3 5 11 3 7 8 11 17 20 18 13 3 7 6 13 12 10 8 10 11 12 12 12 12 12 11 11 11 10 8 8 7 6 6 6 6 6 6 6 5 4 5 5 5
4 7 2 2 3 2 8 6 6 9 7 19 19 15 11 10 9 12 8 15 12 11 8 8 12 13 13 13 13 12 12 11 11 10 9 8 7 7 7 6 5 5 6 6 7 7 7 6 5
3 4 3 4 4 7 5 2 6 5 8 8 7 11 7 5 5 4 13 15 13 9 9 10 14 14 15 15 15 14 13 12 12 11 10 9 9 7 6 6 6 5 6 6 6 7 7 6 5
3 4 5 1 10 15 8 7 8 4 6 11 12 12 6 9 4 8 14 15 12 9 9 9 13 14 15 15 14 13 13 13 13 12 11 9 8 8 8 6 6 6 5 6 7 6 6 6 5
3 1 1 4 13 16 9 8 8 7 5 9 7 6 7 6 7 12 15 14 12 8 6 8 13 15 15 14 14 13 12 12 12 12 12 10 8 7 7 6 7 7 7 6 5 5 6 7 6
4 3 4 7 13 10 10 7 7 8 8 9 9 8 5 8 6 11 13 12 10 9 7 8 13 14 14 14 13 11 10 10 10 11 12 12 9 8 7 7 6 6 7 7 7 7 7 8 8
6 2 6 8 12 11 4 1 3 4 8 6 15 7 8 8 8 10 11 9 8 8 7 6 6 9 11 10 8 8 8 9 9 11 15 15 11 10 11 9 5 5 6 7 7 8 8 9 9
1 5 7 7 10 10 6 5 3 8 4 8 8 8 9 10 11 10 10 8 8 7 7 7 6 5 5 4 7 4 6 7 11 14 15 14 13 15 11 11 7 10 10 9 10 10 10 10 9
2 3 5 11 6 6 8 8 8 6 10 9 8 6 16 21 15 11 10 7 6 6 7 7 6 6 4 4 4 2 9 10 11 11 14 10 6 7 9 12 13 14 12 10 10 11 11 10 9
5 5 10 8 6 4 8 9 4 3 6 7 14 17 19 20 14 14 10 8 7 7 6 6 6 6 5 4 6 6 6 5 5 6 7 6 7 7 10 12 15 16 15 12 11 14 12 7 4
5 6 10 7 6 4 4 11 6 5 4 9 16 18 18 17 12 13 11 10 8 7 6 7 6 5 5 5 4 3 3 3 4 6 6 6 6 5 6 5 6 6 10 7 9 9 7 7 6
7 11 11 9 6 3 1 4 10 2 7 15 22 21 18 17 16 15 14 11 9 8 7 6 6 4 5 4 4 4 3 3 4 4 7 5 4 5 6 5 6 5 5 7 6 5 8 8 8
6 9 10 9 9 7 5 5 7 10 3 20 22 21 19 15 14 9 14 13 11 9 7 7 6 4 4 6 3 4 4 4 4 4 6 5 5 6 5 7 6 5 7 6 7 6 5 7 9
7 10 12 7 11 7 9 7 2 9 9 17 19 17 15 13 11 11 13 13 11 11 9 7 5 3 5 4 3 4 4 3 5 4 5 6 5 5 5 6 6 6 7 7 6 5 8 8 9
9 8 11 13 9 11 10 9 8 9 12 16 15 14 12 11 12 13 13 13 13 9 9 8 6 4 5 4 3 5 3 4 5 5 6 7 5 6 5 5 5 6 7 8 8 9 8 8 9
10 6 6 15 15 19 9 15 12 10 9 14 16 14 14 10 13 12 10 12 12 11 10 7 6 5 5 3 3 3 3 3 4 4 4 7 6 6 5 4 4 5 5 7 7 8 8 8 9
7 7 11 17 18 11 13 8 12 10 6 12 16 12 11 10 13 11 10 12 10 10 9 7 6 4 3 3 2 2 3 4 5 4 4 6 6 6 5 4 5 7 7 7 8 7 8 8 9
6 7 12 9 8 5 2 4 6 6 5 8 11 11 10 14 13 14 14 13 10 9 9 7 4 2 2 0 2 3 3 4 4 4 5 6 5 6 5 5 6 6 6 7 8 9 8 9 11
17 18 17 8 9 4 5 7 9 8 4 9 14 14 14 16 14 16 14 15 13 9 8 5 5 2 3 3 4 4 2 2 3 3 7 6 6 6 6 4 5 5 6 6 7 7 11 9 11
18 15 14 6 9 7 10 11 8 8 7 11 14 14 15 12 19 17 16 15 13 10 10 6 5 6 5 3 1 2 2 2 3 4 4 6 6 6 5 5 5 6 4 6 7 10 7 8 10
19 11 10 7 6 9 6 10 7 7 8 7 15 17 17 20 22 18 16 13 12 11 10 9 8 6 5 6 2 3 3 4 3 4 4 5 6 6 6 7 5 6 4 4 7 8 10 8 8
21 8 10 8 6 10 5 15 8 5 11 11 18 18 17 20 21 17 18 13 12 9 9 10 9 7 6 7 6 6 4 3 2 2 3 5 7 7 8 6 6 6 5 6 7 8 7 7 7
16 9 12 10 6 5 10 5 2 7 14 15 12 17 21 21 24 22 18 15 13 11 9 8 10 8 6 6 6 5 5 3 2 3 7 6 6 7 8 6 6 6 4 5 7 7 7 5 6
7 3 5 4 1 7 5 5 21 9 15 17 16 7 18 24 20 20 17 18 13 10 9 8 9 7 7 7 7 7 6 5 5 7 6 5 4 4 8 7 6 5 5 8 7 7 8 7 6
2 3 3 4 3 12 4 8 16 10 10 9 10 14 21 23 22 20 19 17 14 11 9 8 9 8 7 7 7 6 7 7 7 6 4 5 4 4 6 6 5 4 6 9 9 8 7 7 7
10 7 6 6 6 6 5 7 10 2 6 10 14 17 19 17 16 17 17 14 13 12 9 8 9 8 8 7 6 6 7 4 4 5 4 4 5 4 5 5 5 6 9 9 10 7 7 9 7
10 8 7 8 13 1 4 11 15 10 6 9 18 17 16 16 16 17 16 14 13 11 9 8 8 9 8 7 6 6 6 7 5 6 6 6 6 6 6 6 5 8 10 11 11 8 9 10 9
5 6 7 3 3 6 8 7 5 7 8 10 15 19 17 16 17 14 13 12 11 11 10 10 9 9 8 7 6 6 6 6 6 7 8 6 5 5 7 7 8 8 10 9 9 8 8 9 8
5 2 6 4 5 4 3 5 6 8 9 8 12 11 13 14 13 12 13 11 12 11 10 8 8 8 7 6 7 7 6 6 6 7 6 5 5 7 8 9 9 9 11 8 8 8 9 11 11
2 4 3 3 1 3 4 5 11 12 16 8 10 8 12 12 12 14 14 14 12 10 9 9 7 7 6 6 7 6 5 5 7 6 5 5 6 7 8 9 8 9 9 9 9 9 10 11 12
Wind_Direction
322 303 153 12 40 82 269 270 238 280 62 83 90 92 89 52 123 126 148 105 122 118 92 81 74 80 78 78 75 72 69 67 69 67 59 49 38 35 33 33 33 29 19 5 360 344 333 334 3
331 318 62 271 109 298 277 323 101 81 109 109 97 100 71 73 67 120 116 117 111 96 87 87 83 79 75 69 67 67 70 64 60 57 52 46 37 30 20 17 19 12 6 356 349 342 341 343 348
273 187 68 155 208 224 243 28 106 88 76 47 91 50 62 67 78 82 124 107 100 99 98 76 87 85 77 74 68 63 59 60 58 52 44 35 27 24 21 4 353 350 351 344 335 343 347 339 324
336 25 329 89 262 267 236 198 141 97 65 81 114 76 74 343 108 128 122 112 105 97 84 84 84 81 78 73 68 63 54 49 49 44 38 25 12 4 357 353 341 332 326 330 330 337 328 329 327
144 315 289 277 267 273 289 199 140 126 96 106 100 109 72 45 101 136 126 115 113 116 111 92 81 76 71 67 62 59 55 48 43 39 25 13 4 357 352 342 333 328 318 311 305 302 307 312 311
343 116 348 283 286 298 316 161 149 152 144 133 91 103 110 152 112 97 95 108 122 130 129 99 91 86 80 71 64 59 56 47 40 28 14 4 351 339 331 328 342 344 341 321 311 302 298 294 292
181 84 249 278 292 315 255 55 37 119 146 129 139 88 141 143 124 105 103 101 104 112 116 115 106 99 94 93 76 62 51 47 36 38 15 0 2 357 339 332 356 347 325 311 303 296 283 278 277
121 113 312 282 293 304 336 358 28 58 14 92 137 142 164 163 140 125 118 117 110 101 96 89 79 90 121 92 102 78 52 41 52 40 18 11 5 1 359 8 329 327 326 311 295 282 275 270 273
277 43 269 264 281 288 353 20 348 13 62 44 1 132 140 141 150 129 121 109 102 94 89 83 70 43 57 84 62 102 49 43 56 47 25 7 1 352 6 357 2 5 345 319 310 290 285 274 269
134 164 242 243 293 356 358 1 322 66 102 73 74 77 117 139 154 139 141 146 130 118 101 94 75 46 62 59 52 61 53 48 52 55 35 10 5 14 14 2 358 357 352 357 354 356 334 319 293
257 216 252 280 288 51 17 334 320 201 213 176 154 143 144 154 159 149 157 156 151 133 105 106 94 64 58 70 62 47 48 52 48 59 50 21 9 11 9 358 354 346 354 13 13 3 2 355 349
330 283 255 284 307 292 231 295 316 237 239 153 146 147 154 167 165 166 162 143 135 119 112 101 93 79 51 77 69 61 61 43 40 57 59 42 17 10 2 359 340 354 6 9 360 350 337 339 327
307 307 318 328 337 313 293 258 247 296 73 129 138 154 163 170 170 165 142 139 130 117 112 98 87 68 74 68 61 61 48 40 63 53 57 51 37 22 3 351 346 18 6 357 344 336 338 345 344
281 307 309 318 301 295 289 262 216 286 130 136 149 158 161 172 170 131 139 135 128 122 116 115 96 75 79 86 70 104 60 49 65 64 66 44 48 32 11 353 353 11 0 343 334 339 3 353 345
308 318 303 288 273 267 251 283 242 233 148 156 158 163 168 176 146 144 136 129 128 123 121 125 127 97 74 84 76 97 63 71 77 87 65 48 47 39 16 356 6 4 356 354 8 6 359 356 342
298 291 273 267 249 253 182 240 245 227 176 168 170 175 174 165 142 134 136 126 126 126 123 100 121 104 89 82 84 95 83 75 71 81 63 56 45 37 19 14 11 358 5 17 6 354 359 350 342
243 252 256 272 256 239 195 207 218 231 184 186 177 177 170 143 142 146 127 127 117 114 115 106 88 79 85 134 133 155 94 88 82 77 60 61 44 33 23 22 18 25 22 14 359 3 1 347 340
235 232 252 250 284 310 228 213 210 220 209 180 172 167 163 159 157 133 125 112 103 96 98 101 101 130 233 318 65 81 72 68 84 90 74 62 46 34 36 25 28 29 27 14 4 360 357 349 340
244 255 264 274 283 359 248 258 248 231 203 175 176 178 181 176 147 129 124 121 111 104 104 114 108 316 41 69 68 53 66 76 64 70 87 74 59 42 42 33 29 34 33 17 5 356 349 354 346
256 261 267 263 293 292 288 272 228 228 221 195 188 191 185 142 149 138 133 129 129 130 128 121 117 62 39 40 40 133 170 87 111 87 69 63 71 51 59 53 36 25 24 21 13 1 352 347 353
262 265 273 244 290 292 299 273 267 265 235 222 210 192 187 163 155 146 142 135 133 126 128 125 106 88 49 7 51 20 41 46 38 43 36 35 48 49 58 53 45 29 26 16 12 2 4 342 343
254 232 282 269 247 260 225 278 239 269 273 257 239 203 184 169 154 145 142 135 134 130 108 108 102 88 65 37 42 58 68 69 40 75 40 47 36 44 57 45 41 39 14 22 9 356 351 344 332
278 227 249 265 272 317 263 267 222 232 267 273 239 222 194 156 150 147 140 132 126 118 113 114 110 101 79 65 61 58 52 36 32 37 54 30 30 48 43 37 46 38 27 16 354 345 340 330 326
339 6 340 310 147 264 230 193 276 245 248 254 267 190 140 140 138 133 129 125 122 115 114 112 113 106 89 80 68 72 59 36 47 42 39 18 24 28 25 33 32 21 22 360 354 341 333 328 324
250 42 3 287 208 252 161 226 237 278 301 278 155 123 129 133 134 132 125 126 123 122 122 118 117 107 98 87 74 68 59 58 69 58 43 26 20 20 22 26 22 13 11 356 346 341 333 325 324
218 156 183 218 233 264 333 250 252 200 60 43 57 119 118 120 125 125 125 124 124 120 115 108 119 113 98 88 75 65 61 55 60 58 54 41 31 10 26 14 23 12 8 358 349 344 336 335 332
240 215 212 254 268 255 247 291 299 306 50 43 99 106 107 117 118 118 117 124 126 124 117 113 111 106 93 87 73 68 60 55 45 44 51 41 27 2 3 10 12 8 358 355 351 344 340 335 339
181 195 229 53 218 238 246 250 230 56 39 32 98 119 115 115 119 120 120 130 123 117 107 90 95 97 94 84 75 74 69 54 49 56 47 33 5 356 6 2 1 4 358 358 352 345 350 359 350
327 54 56 112 206 212 262 294 108 108 104 86 97 104 113 128 129 121 124 118 117 110 104 101 96 95 91 91 85 77 63 55 61 60 41 14 2 7 2 359 358 12 351 357 346 3 3 351 335
104 331 68 249 279 157 200 235 72 65 47 41 70 110 128 125 127 126 124 124 124 119 108 102 100 94 99 94 97 92 78 63 66 54 26 358 7 9 0 359 16 360 353 358 20 8 359 342 334